Weather History for KMCK - April, 2013

Change the Weather History Date:

Friday, April 12, 2013

  Actual Average Record
Temperature  
Mean Temperature 41 °F 48 °F  
Max Temperature 56 °F 63 °F 91 °F (1931)
Min Temperature 26 °F 33 °F 12 °F (1997)
Degree Days  
Heating Degree Days 24    
Moisture  
Dew Point 29 °F    
Average Humidity 71    
Maximum Humidity 96    
Minimum Humidity 37    
Precipitation  
Precipitation 0.01 in 0.08 in 0.76 in (2012)
Month to date precipitation 0.76 0.73  
Year to date precipitation 2.60 3.22  
Sea Level Pressure  
Sea Level Pressure 29.99 in    
Wind  
Wind Speed 9 mph (WNW)    
Max Wind Speed 20 mph    
Max Gust Speed 23 mph    
Visibility 10 miles    
Events Rain    
T = Trace of Precipitation, MM = Missing Value Source: NWS Daily Summary

Daily Weather History Graph

Daily Weather History Graph

Search for Another Location

Airport or City:

Trip Planner

Search our weather history database for the weather conditions in past years. The results will help you decide how hot, cold, wet, or windy it might be!

Date:

Astronomy

Apr. 12, 2013 Rise Set
Actual Time 7:08 AM CDT 8:18 PM CDT
Civil Twilight 6:40 AM CDT 8:46 PM CDT
Nautical Twilight 6:07 AM CDT 9:19 PM CDT
Astronomical Twilight 5:32 AM CDT 9:54 PM CDT
Moon 8:19 AM CDT (4/12) 10:50 PM CDT (4/12)
Length of Visible Light 14h 05m
Length of Day
13h 09m
Waxing Crescent, 5% of the Moon is Illuminated
Apr 12
Waxing Crescent
Apr 18
First Quarter
Apr 25
Full
May 2
Last Quarter
May 9
New

Hourly Weather History & Observations

Time (CDT) Temp. Windchill Dew Point Humidity Pressure Visibility Wind Dir Wind Speed Gust Speed Precip Events Conditions
12:53 AM 28.0 °F 20.0 °F 21.9 °F 78% 29.96 in 10.0 mi NW 8.1 mph - N/A   Mostly Cloudy
1:53 AM 30.0 °F 22.4 °F 23.0 °F 75% 29.95 in 10.0 mi West 8.1 mph - N/A   Overcast
2:53 AM 30.0 °F 23.2 °F 24.1 °F 79% 29.95 in 10.0 mi WNW 6.9 mph - N/A   Mostly Cloudy
3:53 AM 28.9 °F 20.4 °F 24.1 °F 82% 29.93 in 10.0 mi West 9.2 mph - N/A   Clear
4:53 AM 27.0 °F 20.5 °F 23.0 °F 85% 29.95 in 10.0 mi WSW 5.8 mph - N/A   Clear
5:53 AM 28.9 °F 20.4 °F 24.1 °F 82% 29.95 in 10.0 mi West 9.2 mph - N/A   Clear
6:53 AM 28.9 °F 20.4 °F 25.0 °F 85% 29.95 in 10.0 mi West 9.2 mph - N/A   Clear
7:53 AM 30.9 °F 21.7 °F 27.0 °F 85% 29.97 in 10.0 mi West 11.5 mph - N/A   Clear
8:53 AM 36.0 °F 28.5 °F 28.0 °F 73% 29.98 in 10.0 mi West 10.4 mph - N/A   Clear
9:53 AM 39.9 °F 34.5 °F 30.0 °F 68% 29.99 in 10.0 mi WNW 8.1 mph - N/A   Clear
10:53 AM 45.0 °F 39.7 °F 30.9 °F 58% 29.99 in 10.0 mi NW 10.4 mph - N/A   Clear
11:53 AM 48.9 °F - 32.0 °F 52% 29.98 in 10.0 mi WNW 10.4 mph - N/A   Partly Cloudy
12:53 PM 51.1 °F - 30.9 °F 46% 29.97 in 10.0 mi North 13.8 mph 19.6 mph N/A   Clear
1:53 PM 54.0 °F - 28.9 °F 38% 29.96 in 10.0 mi NNW 11.5 mph 23.0 mph N/A   Partly Cloudy
2:53 PM 55.9 °F - 30.0 °F 37% 29.95 in 10.0 mi North 10.4 mph 18.4 mph N/A   Mostly Cloudy
3:53 PM 52.0 °F - 30.0 °F 43% 29.99 in 10.0 mi NW 10.4 mph - N/A   Overcast
4:53 PM 50.0 °F - 30.9 °F 48% 29.98 in 10.0 mi NNW 10.4 mph - 0.00 in   Overcast
5:53 PM 43.0 °F 34.5 °F 37.0 °F 80% 30.05 in 7.0 mi NNW 19.6 mph - 0.00 in Rain Light Rain
6:53 PM 43.0 °F 41.3 °F 36.0 °F 76% 30.04 in 10.0 mi NNW 3.5 mph - 0.01 in   Overcast
7:53 PM 42.1 °F 37.1 °F 36.0 °F 79% 30.04 in 10.0 mi NNW 8.1 mph - N/A   Mostly Cloudy
8:53 PM 41.0 °F 39.0 °F 35.1 °F 79% 30.02 in 10.0 mi South 3.5 mph - N/A   Mostly Cloudy
9:53 PM 37.0 °F 31.6 °F 33.1 °F 86% 30.05 in 10.0 mi WSW 6.9 mph - N/A   Clear
10:53 PM 33.1 °F 26.9 °F 32.0 °F 96% 30.06 in 6.0 mi SSW 6.9 mph - N/A   Clear
11:53 PM 33.1 °F 25.5 °F 32.0 °F 96% 30.06 in 7.0 mi WSW 9.2 mph - N/A   Clear